Regional Weather Roundup
Issued by NWS Goodland, KS

Home | Current Version | Previous Version | Graphics & Text | Print | Product List | Glossary On
Versions: 1 2 3 4 5 6 7 8 9 10 11 12 13 14 15 16 17 18 19 20 21 22 23 24 25 26 27 28 29 30 31 32 33 34 35 36 37 38 39 40 41 42 43 44 45 46 47 48 49 50
000
ASUS43 KGLD 191659
RWRGLD

GOODLAND FORECAST AREA HOURLY WEATHER ROUNDUP
NATIONAL WEATHER SERVICE GOODLAND KS
1000 AM MST FRI JAN 19 2018

...OFFICIAL OBSERVATIONS...

CITY           SKY/WX    TMP DP  RH WIND       PRES   REMARKS
GOODLAND KS    PTSUNNY   58  17  20 SW15      29.74F
HILL CITY KS   CLOUDY    45  20  36 S6        29.76F
IMPERIAL NEB   CLOUDY    40  25  55 CALM      29.73R
MCCOOK NEB     CLOUDY    40  23  50 W5        29.73F
AKRON CO       CLOUDY    48  18  30 W14       29.77R
BURLINGTON CO  PTSUNNY   59  16  18 SW18G26   29.78R
LIMON CO       CLOUDY    58  20  22 NW3       29.83R
$$

...UNOFFICIAL OBSERVATIONS...

CITY           SKY/WX    TMP DP  RH WIND       PRES   REMARKS
NORTON KS      SUNNY     48  18  29 S3        29.73
SHARON SPRINGS   N/A     51  18  27 SW12        N/A
KIT CARSON CO    N/A     39  16  40 CALM        N/A
YUMA CO        FAIR      46  19  34 W12       29.75R
$$



USA.gov is the U.S. government's official web portal to all federal, state and local government web resources and services.